Weather History for Watford City, ND

Change the Weather History Date:

Thursday, January 24, 2013

  Actual Average (KISN) Record (KISN)
Temperature  
Mean Temperature 14 °F 12 °F  
Max Temperature 28 °F 22 °F 50 °F (1968)
Min Temperature 1 °F 1 °F -37 °F (1920)
Degree Days  
Heating Degree Days 50 54  
Month to date heating degree days 1306  
Since 1 July heating degree days 5053  
Cooling Degree Days 0 0  
Month to date cooling degree days 0  
Year to date cooling degree days 0  
Moisture  
Dew Point 8 °F    
Average Humidity 79    
Maximum Humidity 86    
Minimum Humidity 68    
Precipitation  
Precipitation 0.01 in 0.01 in 0.34 in (1992)
Month to date precipitation 0.48  
Year to date precipitation 0.48  
Sea Level Pressure  
Sea Level Pressure 29.97 in    
Wind  
Wind Speed 17 mph (South)    
Max Wind Speed 23 mph    
Max Gust Speed 31 mph    
Visibility 10 miles    
Events Rain , Snow    
T = Trace of Precipitation, MM = Missing Value Source: NWS Daily Summary

Daily Weather History Graph

Daily Weather History Graph

Search for Another Location

Airport:

Trip Planner

Search our weather history database for the weather conditions in past years. The results will help you decide how hot, cold, wet, or windy it might be!

Date:

Astronomy

Jan. 24, 2013 Rise Set
Actual Time 8:29 AM CST 5:41 PM CST
Civil Twilight 7:55 AM CST 6:15 PM CST
Nautical Twilight 7:17 AM CST 6:53 PM CST
Astronomical Twilight 6:41 AM CST 7:30 PM CST
Moon 3:43 PM CST (1/24) 6:31 AM CST (1/24)
Length of Visible Light 10h 20m
Length of Day
9h 12m
Waxing Gibbous, 94% of the Moon is Illuminated
Jan 24
Waxing Gibbous
Jan 26
Full
Feb 3
Last Quarter
Feb 10
New
Feb 17
First Quarter

Hourly Weather History & Observations

Time (CST) Temp. Windchill Dew Point Humidity Pressure Visibility Wind Dir Wind Speed Gust Speed Precip Events Conditions
12:15 AM 1.4 °F -19.9 °F -2.2 °F 85% 30.24 in 10.0 mi SE 19.6 mph 24.2 mph N/A   Clear
12:35 AM 1.4 °F -20.5 °F -2.2 °F 85% 30.22 in 10.0 mi SE 20.7 mph - N/A   Scattered Clouds
12:55 AM 1.4 °F -18.8 °F -2.2 °F 85% 30.22 in 10.0 mi SE 17.3 mph 24.2 mph N/A   Scattered Clouds
1:15 AM 1.4 °F -19.4 °F -2.2 °F 85% 30.19 in 10.0 mi ESE 18.4 mph - N/A   Mostly Cloudy
1:35 AM 1.4 °F -21.0 °F -2.2 °F 85% 30.17 in 10.0 mi SE 21.9 mph - N/A   Overcast
1:55 AM 1.4 °F -20.5 °F -2.2 °F 85% 30.15 in 10.0 mi SE 20.7 mph 25.3 mph N/A   Overcast
2:15 AM 1.4 °F -19.4 °F -2.2 °F 85% 30.16 in 10.0 mi SE 18.4 mph 25.3 mph N/A   Overcast
2:35 AM 1.4 °F -21.4 °F -2.2 °F 85% 30.15 in 10.0 mi SE 23.0 mph 28.8 mph N/A   Overcast
2:55 AM 1.4 °F -20.5 °F -2.2 °F 85% 30.14 in 10.0 mi SE 20.7 mph 27.6 mph N/A   Overcast
3:15 AM 1.4 °F -19.4 °F -2.2 °F 85% 30.13 in 10.0 mi SE 18.4 mph 24.2 mph N/A   Overcast
3:35 AM 1.4 °F -18.8 °F -2.2 °F 85% 30.14 in 10.0 mi SE 17.3 mph - N/A   Overcast
3:55 AM 1.4 °F -18.8 °F -2.2 °F 85% 30.12 in 10.0 mi SE 17.3 mph - N/A   Overcast
4:15 AM 1.4 °F -18.2 °F -2.2 °F 85% 30.11 in 10.0 mi SE 16.1 mph 24.2 mph N/A   Mostly Cloudy
4:35 AM 1.4 °F -21.0 °F -2.2 °F 85% 30.08 in 10.0 mi SE 21.9 mph 27.6 mph N/A   Scattered Clouds
4:55 AM 1.4 °F -18.2 °F -2.2 °F 85% 30.07 in 10.0 mi SE 16.1 mph 24.2 mph N/A   Overcast
5:15 AM 3.2 °F -15.3 °F -2.2 °F 78% 30.06 in 10.0 mi SE 15.0 mph 20.7 mph N/A   Overcast
5:35 AM 3.2 °F -18.1 °F -2.2 °F 78% 30.03 in 10.0 mi SE 20.7 mph - N/A   Overcast
5:55 AM 3.2 °F -16.5 °F -2.2 °F 78% 30.01 in 10.0 mi SE 17.3 mph 25.3 mph N/A   Overcast
6:15 AM 3.2 °F -13.1 °F -0.4 °F 85% 30.01 in 10.0 mi SE 11.5 mph - N/A   Overcast
6:35 AM 5.0 °F -16.2 °F -0.4 °F 78% 30.01 in 10.0 mi SSE 21.9 mph 31.1 mph N/A   Overcast
6:55 AM 5.0 °F -14.2 °F -0.4 °F 78% 30.00 in 10.0 mi SSE 17.3 mph 21.9 mph N/A   Overcast
7:15 AM 5.0 °F -13.6 °F -0.4 °F 78% 29.99 in 10.0 mi SSE 16.1 mph - N/A   Overcast
7:35 AM 5.0 °F -14.7 °F -0.4 °F 78% 29.97 in 10.0 mi SSE 18.4 mph 21.9 mph N/A   Overcast
7:55 AM 5.0 °F -14.2 °F -0.4 °F 78% 29.97 in 10.0 mi SSE 17.3 mph 21.9 mph N/A   Overcast
8:15 AM 5.0 °F -13.6 °F -0.4 °F 78% 29.96 in 10.0 mi SSE 16.1 mph - N/A   Overcast
8:35 AM 6.8 °F -12.4 °F -0.4 °F 72% 29.96 in 10.0 mi SSE 18.4 mph 21.9 mph N/A   Overcast
8:55 AM 6.8 °F -11.3 °F -0.4 °F 72% 29.94 in 10.0 mi SSE 16.1 mph - N/A   Overcast
9:15 AM 6.8 °F -9.3 °F -0.4 °F 72% 29.95 in 10.0 mi SSE 12.7 mph - N/A   Unknown
9:35 AM 6.8 °F -9.3 °F -0.4 °F 72% 29.95 in 10.0 mi SSE 12.7 mph - N/A   Overcast
9:55 AM 6.8 °F -12.9 °F 1.4 °F 79% 29.92 in 10.0 mi SSE 19.6 mph 23.0 mph N/A   Mostly Cloudy
10:15 AM 8.6 °F -10.5 °F 1.4 °F 73% 29.92 in 10.0 mi SSE 19.6 mph - N/A   Scattered Clouds
10:35 AM 8.6 °F -10.5 °F 1.4 °F 73% 29.91 in 7.0 mi South 19.6 mph 26.5 mph N/A Snow Light Snow
10:55 AM 8.6 °F -8.9 °F 3.2 °F 79% 29.91 in 10.0 mi South 16.1 mph 24.2 mph N/A   Mostly Cloudy
11:15 AM 8.6 °F -8.3 °F 3.2 °F 79% 29.92 in 10.0 mi South 15.0 mph 20.7 mph N/A Snow Light Snow
11:35 AM 10.4 °F -6.6 °F 5.0 °F 79% 29.93 in 0.8 mi South 16.1 mph - N/A Snow Light Snow
11:55 AM 10.4 °F -6.6 °F 6.8 °F 85% 29.89 in 1.5 mi South 16.1 mph 20.7 mph 0.01 in Snow Light Snow
12:15 PM 10.4 °F -6.0 °F 6.8 °F 85% 29.89 in 10.0 mi South 15.0 mph 21.9 mph N/A Rain Light Freezing Rain
12:35 PM 12.2 °F -4.3 °F 6.8 °F 79% 29.85 in 10.0 mi South 16.1 mph 21.9 mph N/A   Clear
12:55 PM 14.0 °F 2.0 °F 6.8 °F 73% 29.84 in 10.0 mi SSE 9.2 mph 17.3 mph N/A   Partly Cloudy
1:15 PM 15.8 °F 3.4 °F 8.6 °F 73% 29.84 in 10.0 mi SSW 10.4 mph - N/A   Partly Cloudy
1:35 PM 15.8 °F 1.4 °F 8.6 °F 73% 29.82 in 10.0 mi South 13.8 mph - N/A   Clear
1:55 PM 17.6 °F 5.7 °F 8.6 °F 68% 29.81 in 10.0 mi SSW 10.4 mph - N/A   Clear
2:15 PM 17.6 °F 6.4 °F 10.4 °F 73% 29.81 in 10.0 mi SSW 9.2 mph - N/A   Clear
2:35 PM 19.4 °F 8.6 °F 12.2 °F 74% 29.81 in 10.0 mi SW 9.2 mph - N/A   Clear
2:55 PM 21.2 °F 10.1 °F 14.0 °F 74% 29.80 in 10.0 mi SW 10.4 mph - N/A   Clear
3:15 PM 23.0 °F 13.9 °F 14.0 °F 68% 29.80 in 10.0 mi SW 8.1 mph - N/A   Clear
3:35 PM 24.8 °F 14.6 °F 15.8 °F 69% 29.81 in 10.0 mi WSW 10.4 mph - N/A   Clear
3:55 PM 24.8 °F 16.1 °F 15.8 °F 69% 29.83 in 10.0 mi WSW 8.1 mph - N/A   Clear
4:15 PM 26.6 °F 15.2 °F 19.4 °F 74% 29.83 in 10.0 mi West 13.8 mph - N/A   Partly Cloudy
4:35 PM 28.4 °F 18.0 °F 21.2 °F 74% 29.84 in 10.0 mi West 12.7 mph 18.4 mph N/A   Mostly Cloudy
4:55 PM 28.4 °F 18.0 °F 23.0 °F 80% 29.84 in 10.0 mi West 12.7 mph - N/A   Overcast
5:35 PM 26.6 °F 14.3 °F 21.2 °F 80% 29.86 in 10.0 mi West 16.1 mph - N/A   Mostly Cloudy
5:55 PM 26.6 °F 14.7 °F 21.2 °F 80% 29.88 in 10.0 mi West 15.0 mph 19.6 mph N/A   Mostly Cloudy
6:15 PM 24.8 °F 11.9 °F 19.4 °F 80% 29.88 in 10.0 mi West 16.1 mph - N/A   Mostly Cloudy
6:35 PM 24.8 °F 14.6 °F 19.4 °F 80% 29.89 in 10.0 mi West 10.4 mph 17.3 mph N/A   Mostly Cloudy
6:55 PM 24.8 °F 12.9 °F 19.4 °F 80% 29.90 in 10.0 mi West 13.8 mph - N/A   Overcast
7:35 PM 24.8 °F 12.9 °F 19.4 °F 80% 29.92 in 10.0 mi WNW 13.8 mph 17.3 mph N/A   Overcast
7:55 PM 24.8 °F 15.3 °F 19.4 °F 80% 29.93 in 10.0 mi WNW 9.2 mph - N/A   Overcast
8:15 PM 24.8 °F 14.0 °F 19.4 °F 80% 29.94 in 10.0 mi WNW 11.5 mph 17.3 mph N/A   Overcast
8:35 PM 24.8 °F 12.4 °F 19.4 °F 80% 29.94 in 10.0 mi WNW 15.0 mph 21.9 mph N/A   Overcast
8:55 PM 24.8 °F 11.5 °F 19.4 °F 80% 29.94 in 10.0 mi WNW 17.3 mph - N/A   Overcast
9:15 PM 24.8 °F 12.9 °F 19.4 °F 80% 29.94 in 10.0 mi WNW 13.8 mph 19.6 mph N/A   Overcast
9:35 PM 24.8 °F 12.4 °F 19.4 °F 80% 29.95 in 10.0 mi WNW 15.0 mph 21.9 mph N/A   Overcast
9:55 PM 24.8 °F 14.6 °F 19.4 °F 80% 29.95 in 10.0 mi WNW 10.4 mph - N/A   Overcast
10:15 PM 23.0 °F 12.4 °F 17.6 °F 80% 29.96 in 10.0 mi NW 10.4 mph - N/A   Overcast
10:35 PM 21.2 °F 10.9 °F 17.6 °F 86% 29.96 in 10.0 mi NW 9.2 mph - N/A   Overcast
10:55 PM 21.2 °F 12.6 °F 17.6 °F 86% 29.97 in 10.0 mi NW 6.9 mph - N/A   Overcast
11:15 PM 21.2 °F 16.4 °F 17.6 °F 86% 29.97 in 10.0 mi WNW 3.5 mph - N/A   Overcast
11:35 PM 21.2 °F 12.6 °F 17.6 °F 86% 29.98 in 10.0 mi NW 6.9 mph - N/A   Overcast
11:55 PM 21.2 °F 11.7 °F 17.6 °F 86% 29.98 in 10.0 mi NW 8.1 mph - N/A   Overcast